| time (UTC) | temp F | wind direction | speed knots | gust knots | rain 1hr in | rain 24hr in | rain mn in | humidity % | barometer mb |
| 20260504201601 | 0 | 0.0 | 0.0 | 0.00 | 0.00 | 0.00 | 1010.2 | ||
| 20260504200059 | 0 | 0.0 | 0.0 | 0.00 | 0.00 | 0.00 | 1010.2 | ||
| 20260504194604 | 0 | 0.0 | 0.0 | 0.00 | 0.00 | 0.00 | 1010.1 | ||
| 20260504193045 | 0 | 0.0 | 0.0 | 0.00 | 0.00 | 0.00 | 1010.2 | ||
| 20260504191547 | 0 | 0.0 | 0.0 | 0.00 | 0.00 | 0.00 | 1010.4 | ||
| 20260504190044 | 0 | 0.0 | 0.0 | 0.00 | 0.00 | 0.00 | 1010.5 | ||
| 20260504184538 | 0 | 0.0 | 0.0 | 0.00 | 0.00 | 0.00 | 1010.4 | ||
| 20260504183027 | 0 | 0.0 | 0.0 | 0.00 | 0.00 | 0.00 | 1010.4 | ||
| 20260504181523 | 0 | 0.0 | 0.0 | 0.00 | 0.00 | 0.00 | 1010.5 | ||
| 20260504180021 | 0 | 0.0 | 0.0 | 0.00 | 0.00 | 0.00 | 1010.4 | ||
| 20260504174514 | 0 | 0.0 | 0.0 | 0.00 | 0.00 | 0.00 | 1010.5 | ||
| 20260504173015 | 0 | 0.0 | 0.0 | 0.00 | 0.00 | 0.00 | 1010.4 | ||
| 20260504171505 | 0 | 0.0 | 0.0 | 0.00 | 0.00 | 0.00 | 1010.6 | ||
| 20260504081547 | 57 | 277 | 1.7 | 2.6 | 0.00 | 0.00 | 0.00 | 86 | 1008.8 |
| 20260504044531 | 63 | 284 | 0.9 | 2.6 | 0.00 | 0.00 | 0.00 | 69 | 1009.3 |
| 20260504043030 | 62 | 292 | 1.7 | 3.5 | 0.00 | 0.00 | 0.00 | 71 | 1009.2 |
| 20260504041528 | 63 | 292 | 1.7 | 3.5 | 0.00 | 0.00 | 0.00 | 70 | 1009.1 |
| 20260504040031 | 64 | 283 | 0.0 | 2.6 | 0.00 | 0.00 | 0.00 | 62 | 1009.1 |
| 20260504034540 | 66 | 283 | 0.0 | 0.0 | 0.00 | 0.00 | 0.00 | 56 | 1009.0 |
| 20260504033030 | 66 | 283 | 0.0 | 0.0 | 0.00 | 0.00 | 0.00 | 54 | 1009.0 |
| 20260504031523 | 0 | 0.0 | 0.0 | 0.00 | 0.00 | 0.00 | 1009.1 | ||
| 20260504030029 | 0 | 0.0 | 0.0 | 0.00 | 0.00 | 0.00 | 1009.1 | ||
| 20260504024518 | 68 | 150 | 2.6 | 4.3 | 0.00 | 0.00 | 0.00 | 50 | 1009.1 |
| 20260504023016 | 68 | 140 | 1.7 | 4.3 | 0.00 | 0.00 | 0.00 | 52 | 1009.1 |
| 20260504021514 | 68 | 153 | 1.7 | 4.3 | 0.00 | 0.00 | 0.00 | 52 | 1009.4 |
| 20260504020013 | 67 | 148 | 1.7 | 5.2 | 0.00 | 0.00 | 0.00 | 53 | 1009.5 |
| 20260504014517 | 67 | 161 | 3.5 | 7.0 | 0.00 | 0.00 | 0.00 | 53 | 1009.5 |
| 20260504013010 | 68 | 157 | 2.6 | 5.2 | 0.00 | 0.00 | 0.00 | 53 | 1009.7 |
| 20260504011510 | 68 | 143 | 1.7 | 5.2 | 0.00 | 0.00 | 0.00 | 55 | 1009.7 |
| 20260504010007 | 68 | 154 | 2.6 | 5.2 | 0.00 | 0.00 | 0.00 | 55 | 1009.9 |
| 20260504004506 | 67 | 149 | 3.5 | 6.1 | 0.00 | 0.00 | 0.00 | 57 | 1010.0 |
| 20260504003003 | 67 | 152 | 2.6 | 4.3 | 0.00 | 0.00 | 0.00 | 57 | 1010.2 |
| 20260504001501 | 67 | 165 | 2.6 | 5.2 | 0.00 | 0.00 | 0.00 | 57 | 1010.3 |
| 20260504000108 | 69 | 162 | 1.7 | 4.3 | 0.00 | 0.00 | 0.00 | 55 | 1010.5 |
| 20260503234557 | 70 | 173 | 2.6 | 7.0 | 0.00 | 0.00 | 0.00 | 54 | 1010.7 |
| 20260503233056 | 73 | 197 | 2.6 | 5.2 | 0.00 | 0.00 | 0.00 | 51 | 1010.8 |
| 20260503231555 | 74 | 175 | 0.9 | 4.3 | 0.00 | 0.00 | 0.00 | 50 | 1010.8 |
| 20260503230051 | 74 | 237 | 3.5 | 7.0 | 0.00 | 0.00 | 0.00 | 51 | 1010.9 |
| 20260503224551 | 76 | 251 | 3.5 | 8.7 | 0.00 | 0.00 | 0.00 | 44 | 1011.1 |
| 20260503223045 | 75 | 341 | 7.0 | 11.3 | 0.00 | 0.00 | 0.00 | 43 | 1011.3 |
| 20260503221541 | 74 | 355 | 7.8 | 11.3 | 0.00 | 0.00 | 0.00 | 44 | 1011.4 |
| 20260503220040 | 74 | 9 | 8.7 | 11.3 | 0.00 | 0.00 | 0.00 | 44 | 1011.5 |
| 20260503214542 | 74 | 355 | 7.8 | 12.2 | 0.00 | 0.00 | 0.00 | 44 | 1011.7 |
| 20260503213050 | 73 | 340 | 10.4 | 14.8 | 0.00 | 0.00 | 0.00 | 45 | 1011.9 |
| 20260503211532 | 72 | 320 | 8.7 | 14.8 | 0.00 | 0.00 | 0.00 | 46 | 1012.0 |
| 20260503210024 | 72 | 348 | 10.4 | 13.9 | 0.00 | 0.00 | 0.00 | 47 | 1012.3 |
| 20260503204528 | 72 | 345 | 12.2 | 15.6 | 0.00 | 0.00 | 0.00 | 47 | 1012.5 |
| 20260503203023 | 71 | 349 | 10.4 | 14.8 | 0.00 | 0.00 | 0.00 | 47 | 1012.7 |